Home > Weather > Groningen > Past weeks

Flag for Netherlands Weather for the Past 2 Weeks in Groningen, Netherlands

Now
39 °F

Partly cloudy.


Feels Like: 32 °F
Forecast: 36 / 46 °F
Wind: 10 mph from West

Location: Groningen Eelde Airport

Current Time: Feb 9, 2016 at 10:22:35 PM

Latest Report: Feb 9, 2016 at 9:55 PM


Visibility: N/A

Pressure: 29.00 "Hg

Humidity: 87%

Dew point: 36 °F

Location of GroningenLocation

Historic Weather in Groningen — Graph

°F

Groningen Temperature Yesterday

Maximum temperature yesterday: 50 °F (at 12:55 PM)
Minimum temperature yesterday: 43 °F (at 12:25 AM)
Average temperature yesterday: 46 °F

High & Low Weather Summary for the Past Weeks

 TemperatureHumidityPressure
High54 °F (Jan 27, 2:25 PM)100% (Jan 26, 6:55 AM)30.21 "Hg (Jan 26, 6:55 AM)
Low36 °F (Feb 3, 8:55 PM)62% (Feb 7, 3:55 PM)28.91 "Hg (Feb 9, 5:25 PM)
Average45 °F83%29.75 "Hg
* Reported Jan 25 8:25 PM — Feb 9 8:55 PM, Groningen, Weather by CustomWeather, © 2016

Note: Actual official high and low records may vary slightly from our data, if they occured in-between our weather recording intervals... More about our weather records

Advertising

Groningen Weather History for the Previous 24 Hours

 ConditionsComfort  
Time TempWeatherWind HumidityBarometerVisibility
8:55 PM
Tue, Feb 9
37 °FClear.6 mph93%28.97 "HgN/A
8:25 PM37 °FDrizzle. Mostly cloudy.13 mph93%28.97 "HgN/A
7:55 PM37 °FSprinkles. Partly cloudy.16 mph93%28.97 "Hg6 mi
7:25 PM39 °FSprinkles. Mostly cloudy.16 mph87%28.94 "Hg5 mi
6:55 PM39 °FLight rain. Mostly cloudy.16 mph87%28.94 "Hg4 mi
6:25 PM37 °FSprinkles. Partly cloudy.17 mph93%28.91 "Hg3 mi
5:55 PM39 °FLight rain. Partly cloudy.15 mph93%28.91 "HgN/A
5:25 PM41 °FSprinkles. Cloudy.13 mph87%28.91 "HgN/A
4:25 PM41 °FLight rain. Broken clouds.5 mph93%28.94 "HgN/A
3:55 PM43 °FSprinkles. Overcast.3 mph81%28.94 "HgN/A
3:25 PM43 °FLight rain. More clouds than sun.3 mph87%28.97 "HgN/A
2:55 PM45 °FPartly sunny.6 mph81%29.00 "HgN/A
2:25 PM45 °FPassing clouds.8 mph81%29.00 "HgN/A
1:55 PM45 °FPassing clouds.8 mph81%29.03 "HgN/A
1:25 PM45 °FPartly sunny.8 mph81%29.06 "HgN/A
12:55 PM45 °FClear.9 mph81%29.09 "HgN/A
12:25 PM45 °FBroken clouds.15 mph81%29.12 "HgN/A
10:55 AM45 °FPartly sunny.17 mph81%29.18 "HgN/A
10:25 AM43 °FBroken clouds.17 mph87%29.18 "HgN/A
9:55 AM43 °FBroken clouds.18 mph87%29.21 "HgN/A
8:55 AM43 °FBroken clouds.20 mph81%29.21 "HgN/A
8:25 AM43 °FDrizzle. More clouds than sun.18 mph81%29.21 "HgN/A
7:55 AM43 °FPartly cloudy.26 mph81%29.21 "Hg4 mi
6:55 AM43 °FPassing clouds.18 mph81%29.21 "HgN/A
6:25 AM43 °FPartly cloudy.16 mph81%29.24 "HgN/A
5:55 AM43 °FPassing clouds.21 mph76%29.24 "HgN/A
5:25 AM45 °FOvercast.22 mph76%29.24 "HgN/A
4:55 AM45 °FMostly cloudy.26 mph76%29.24 "HgN/A
4:25 AM45 °FPassing clouds.26 mph81%29.24 "HgN/A
3:55 AM45 °FPartly cloudy.25 mph81%29.21 "HgN/A
3:25 AM45 °FPartly cloudy.25 mph81%29.21 "HgN/A
2:55 AM45 °FLight rain. Passing clouds.25 mph87%29.21 "Hg6 mi
2:25 AM45 °FDrizzle. Overcast.29 mph87%29.18 "HgN/A
1:55 AM45 °FDrizzle. Overcast.28 mph87%29.18 "HgN/A
1:25 AM45 °FPartly cloudy.23 mph93%29.15 "Hg4 mi
12:55 AM45 °FPassing clouds.24 mph87%29.15 "Hg4 mi
12:25 AM46 °FMostly cloudy.25 mph82%29.12 "HgN/A
11:55 PM
Mon, Feb 8
46 °FPartly cloudy.23 mph82%29.12 "HgN/A
11:25 PM45 °FPassing clouds.22 mph87%29.09 "HgN/A
10:55 PM43 °FPartly cloudy.21 mph87%29.09 "HgN/A
10:25 PM43 °FPassing clouds.20 mph87%29.09 "HgN/A
Weather by CustomWeather, © 2016

See weather overviewHow to use our weather pages